Time,TemperatureF,DewpointF,PressureIn,WindDirection,WindDirectionDegrees,WindSpeedMPH,WindSpeedGustMPH,Humidity,HourlyPrecipIn,Conditions,Clouds,dailyrainin,SoftwareType,DateUTC
2013-09-26 00:05:00,57.3,54.4,29.96,East,97,1.0,15.0,90,0.00,,,0.00,Wunderground v.1.15,2013-09-26 04:05:00,
2013-09-26 00:10:00,57.3,54.1,29.96,East,101,1.0,1.0,89,0.00,,,0.00,Wunderground v.1.15,2013-09-26 04:10:00,
2013-09-26 00:20:00,57.2,54.0,29.97,NE,42,1.0,1.0,89,0.00,,,0.00,Wunderground v.1.15,2013-09-26 04:20:00,
2013-09-26 00:30:00,57.2,54.0,29.97,NE,39,1.0,15.0,89,0.00,,,0.00,Wunderground v.1.15,2013-09-26 04:30:00,
2013-09-26 00:40:00,57.1,53.6,29.97,East,100,1.0,15.0,88,0.00,,,0.00,Wunderground v.1.15,2013-09-26 04:40:00,
2013-09-26 00:45:00,57.0,53.5,29.97,East,88,1.0,15.0,88,0.00,,,0.00,Wunderground v.1.15,2013-09-26 04:45:00,
2013-09-26 00:55:00,56.9,53.4,29.97,East,97,1.0,15.0,88,0.00,,,0.00,Wunderground v.1.15,2013-09-26 04:55:00,
2013-09-26 01:00:00,56.9,53.4,29.97,ESE,108,0.0,15.0,88,0.00,,,0.00,Wunderground v.1.15,2013-09-26 05:00:00,
2013-09-26 01:10:00,56.8,53.3,29.98,East,94,1.0,1.0,88,0.00,,,0.00,Wunderground v.1.15,2013-09-26 05:10:00,
2013-09-26 01:20:00,56.7,53.5,29.98,NE,54,1.0,1.0,89,0.00,,,0.00,Wunderground v.1.15,2013-09-26 05:20:00,
2013-09-26 01:30:00,56.6,53.4,29.98,North,5,0.0,15.0,89,0.00,,,0.00,Wunderground v.1.15,2013-09-26 05:30:00,
2013-09-26 01:40:00,56.5,53.0,29.97,NNE,18,0.0,15.0,88,0.00,,,0.00,Wunderground v.1.15,2013-09-26 05:40:00,
2013-09-26 01:50:00,56.4,52.9,29.98,WNW,294,0.0,15.0,88,0.00,,,0.00,Wunderground v.1.15,2013-09-26 05:50:00,
2013-09-26 02:00:00,56.2,52.4,29.97,WNW,297,0.0,15.0,87,0.00,,,0.00,Wunderground v.1.15,2013-09-26 06:00:00,
2013-09-26 02:05:00,56.2,52.4,29.97,WNW,297,0.0,15.0,87,0.00,,,0.00,Wunderground v.1.15,2013-09-26 06:05:00,
2013-09-26 02:15:00,56.1,52.3,29.97,NNE,33,0.0,15.0,87,0.00,,,0.00,Wunderground v.1.15,2013-09-26 06:15:00,
2013-09-26 02:25:00,56.0,51.9,29.97,NNE,31,0.0,15.0,86,0.00,,,0.00,Wunderground v.1.15,2013-09-26 06:25:00,
2013-09-26 02:35:00,55.9,51.8,29.97,NNE,33,0.0,15.0,86,0.00,,,0.00,Wunderground v.1.15,2013-09-26 06:35:00,
2013-09-26 02:45:00,55.8,51.7,29.97,NNE,31,0.0,15.0,86,0.00,,,0.00,Wunderground v.1.15,2013-09-26 06:45:00,
2013-09-26 02:55:00,55.8,51.7,29.97,NNE,32,0.0,15.0,86,0.00,,,0.00,Wunderground v.1.15,2013-09-26 06:55:00,
2013-09-26 03:05:00,55.7,51.6,29.97,NNE,33,0.0,15.0,86,0.00,,,0.00,Wunderground v.1.15,2013-09-26 07:05:00,
2013-09-26 03:10:00,55.7,51.6,29.97,NW,314,0.0,15.0,86,0.00,,,0.00,Wunderground v.1.15,2013-09-26 07:10:00,
2013-09-26 03:15:00,55.7,51.6,29.97,NNW,334,0.0,15.0,86,0.00,,,0.00,Wunderground v.1.15,2013-09-26 07:15:00,
2013-09-26 03:25:00,55.7,51.6,29.97,NNW,347,0.0,15.0,86,0.00,,,0.00,Wunderground v.1.15,2013-09-26 07:25:00,
2013-09-26 03:35:00,55.6,51.5,29.98,NNW,347,0.0,15.0,86,0.00,,,0.00,Wunderground v.1.15,2013-09-26 07:35:00,
2013-09-26 03:40:00,55.5,51.4,29.97,NE,37,0.0,15.0,86,0.00,,,0.00,Wunderground v.1.15,2013-09-26 07:40:00,
2013-09-26 03:45:00,55.5,51.4,29.97,NE,44,0.0,15.0,86,0.00,,,0.00,Wunderground v.1.15,2013-09-26 07:45:00,
2013-09-26 03:55:00,55.4,51.3,29.98,NE,42,0.0,15.0,86,0.00,,,0.00,Wunderground v.1.15,2013-09-26 07:55:00,
2013-09-26 04:05:00,55.3,50.9,29.98,North,351,0.0,15.0,85,0.00,,,0.00,Wunderground v.1.15,2013-09-26 08:05:00,
2013-09-26 04:15:00,55.3,51.2,29.98,North,355,0.0,15.0,86,0.00,,,0.00,Wunderground v.1.15,2013-09-26 08:15:00,
2013-09-26 04:20:00,55.3,51.2,29.98,North,352,0.0,15.0,86,0.00,,,0.00,Wunderground v.1.15,2013-09-26 08:20:00,
2013-09-26 04:30:00,55.2,51.1,29.98,North,5,0.0,15.0,86,0.00,,,0.00,Wunderground v.1.15,2013-09-26 08:30:00,
2013-09-26 04:40:00,55.1,51.3,29.98,North,4,0.0,15.0,87,0.00,,,0.00,Wunderground v.1.15,2013-09-26 08:40:00,
2013-09-26 04:50:00,54.9,51.4,29.98,North,3,0.0,15.0,88,0.00,,,0.00,Wunderground v.1.15,2013-09-26 08:50:00,
2013-09-26 05:00:00,54.9,51.7,29.99,North,1,1.0,15.0,89,0.00,,,0.00,Wunderground v.1.15,2013-09-26 09:00:00,
2013-09-26 05:10:00,54.6,51.4,29.99,North,1,1.0,1.0,89,0.00,,,0.00,Wunderground v.1.15,2013-09-26 09:10:00,
2013-09-26 05:20:00,54.3,51.1,29.99,NNW,338,0.0,15.0,89,0.00,,,0.00,Wunderground v.1.15,2013-09-26 09:20:00,
2013-09-26 05:25:00,54.1,51.2,29.99,NNW,338,0.0,15.0,90,0.00,,,0.00,Wunderground v.1.15,2013-09-26 09:25:00,
2013-09-26 05:35:00,53.7,51.1,29.99,NNW,347,0.0,15.0,91,0.00,,,0.00,Wunderground v.1.15,2013-09-26 09:35:00,
2013-09-26 05:40:00,53.5,50.9,29.99,NNW,347,0.0,15.0,91,0.00,,,0.00,Wunderground v.1.15,2013-09-26 09:40:00,
2013-09-26 05:50:00,53.1,50.8,29.99,NNW,347,0.0,15.0,92,0.00,,,0.00,Wunderground v.1.15,2013-09-26 09:50:00,
2013-09-26 05:55:00,52.7,50.4,29.99,NNW,347,0.0,15.0,92,0.00,,,0.00,Wunderground v.1.15,2013-09-26 09:55:00,
2013-09-26 06:05:00,52.1,50.1,29.99,NNW,347,0.0,15.0,93,0.00,,,0.00,Wunderground v.1.15,2013-09-26 10:05:00,
2013-09-26 06:15:00,51.8,50.1,29.99,NNW,347,0.0,15.0,94,0.00,,,0.00,Wunderground v.1.15,2013-09-26 10:15:00,
2013-09-26 06:25:00,51.7,50.3,29.99,NNW,347,0.0,15.0,95,0.00,,,0.00,Wunderground v.1.15,2013-09-26 10:25:00,
2013-09-26 06:40:00,51.6,50.2,30.00,NNW,336,0.0,15.0,95,0.00,,,0.00,Wunderground v.1.15,2013-09-26 10:40:00,
2013-09-26 06:45:00,51.5,50.1,30.00,NNW,336,0.0,15.0,95,0.00,,,0.00,Wunderground v.1.15,2013-09-26 10:45:00,
2013-09-26 06:55:00,51.2,49.8,30.01,NNW,336,0.0,15.0,95,0.00,,,0.00,Wunderground v.1.15,2013-09-26 10:55:00,
2013-09-26 07:05:00,50.9,49.5,30.01,WNW,300,0.0,15.0,95,0.00,,,0.00,Wunderground v.1.15,2013-09-26 11:05:00,
2013-09-26 07:15:00,50.9,49.8,30.01,WNW,300,0.0,15.0,96,0.00,,,0.00,Wunderground v.1.15,2013-09-26 11:15:00,
2013-09-26 07:20:00,50.9,49.8,30.01,WNW,300,0.0,15.0,96,0.00,,,0.00,Wunderground v.1.15,2013-09-26 11:20:00,
2013-09-26 07:30:00,51.0,49.9,30.01,WNW,300,0.0,15.0,96,0.00,,,0.00,Wunderground v.1.15,2013-09-26 11:30:00,
2013-09-26 07:40:00,51.4,50.3,30.01,WNW,300,0.0,15.0,96,0.00,,,0.00,Wunderground v.1.15,2013-09-26 11:40:00,
2013-09-26 07:50:00,51.8,50.7,30.02,WNW,300,0.0,15.0,96,0.00,,,0.00,Wunderground v.1.15,2013-09-26 11:50:00,
2013-09-26 08:00:00,52.1,51.0,30.02,WNW,300,0.0,15.0,96,0.00,,,0.00,Wunderground v.1.15,2013-09-26 12:00:00,
2013-09-26 08:10:00,52.5,51.4,30.02,WNW,299,0.0,15.0,96,0.00,,,0.00,Wunderground v.1.15,2013-09-26 12:10:00,
2013-09-26 08:15:00,52.8,51.7,30.02,NW,307,0.0,15.0,96,0.00,,,0.00,Wunderground v.1.15,2013-09-26 12:15:00,
2013-09-26 08:25:00,53.4,52.0,30.02,NW,307,0.0,15.0,95,0.00,,,0.00,Wunderground v.1.15,2013-09-26 12:25:00,
2013-09-26 08:35:00,54.0,52.0,30.02,NW,307,0.0,15.0,93,0.00,,,0.00,Wunderground v.1.15,2013-09-26 12:35:00,
2013-09-26 08:45:00,54.6,52.3,30.03,NW,310,0.0,15.0,92,0.00,,,0.00,Wunderground v.1.15,2013-09-26 12:45:00,
2013-09-26 08:50:00,54.9,52.3,30.03,NW,311,0.0,15.0,91,0.00,,,0.00,Wunderground v.1.15,2013-09-26 12:50:00,
2013-09-26 09:05:00,55.8,52.3,30.03,NW,325,0.0,15.0,88,0.00,,,0.00,Wunderground v.1.15,2013-09-26 13:05:00,
2013-09-26 09:15:00,56.4,51.9,30.03,NE,47,1.0,15.0,85,0.00,,,0.00,Wunderground v.1.15,2013-09-26 13:15:00,
2013-09-26 09:20:00,56.5,52.4,30.03,North,7,2.0,15.0,86,0.00,,,0.00,Wunderground v.1.15,2013-09-26 13:20:00,
2013-09-26 09:30:00,56.9,52.1,30.04,NE,37,2.0,15.0,84,0.00,,,0.00,Wunderground v.1.15,2013-09-26 13:30:00,
2013-09-26 09:40:00,57.2,52.1,30.04,NE,41,1.0,15.0,83,0.00,,,0.00,Wunderground v.1.15,2013-09-26 13:40:00,
2013-09-26 09:50:00,57.4,51.9,30.04,NNE,13,2.0,15.0,82,0.00,,,0.00,Wunderground v.1.15,2013-09-26 13:50:00,
2013-09-26 10:00:00,57.6,51.8,30.04,NE,42,2.0,15.0,81,0.00,,,0.00,Wunderground v.1.15,2013-09-26 14:00:00,
2013-09-26 10:10:00,57.9,52.1,30.04,NNE,14,1.0,15.0,81,0.00,,,0.00,Wunderground v.1.15,2013-09-26 14:10:00,
2013-09-26 10:15:00,58.1,51.6,30.05,North,349,1.0,15.0,79,0.00,,,0.00,Wunderground v.1.15,2013-09-26 14:15:00,
2013-09-26 10:25:00,58.4,51.6,30.05,NNW,347,2.0,15.0,78,0.00,,,0.00,Wunderground v.1.15,2013-09-26 14:25:00,
2013-09-26 10:35:00,58.8,50.9,30.05,North,354,2.0,6.0,75,0.00,,,0.00,Wunderground v.1.15,2013-09-26 14:35:00,
2013-09-26 10:45:00,58.8,50.9,30.05,NE,49,2.0,15.0,75,0.00,,,0.00,Wunderground v.1.15,2013-09-26 14:45:00,
2013-09-26 10:50:00,59.0,51.4,30.05,NE,44,2.0,15.0,76,0.00,,,0.00,Wunderground v.1.15,2013-09-26 14:50:00,
2013-09-26 11:00:00,59.2,50.9,30.05,NW,323,2.0,15.0,74,0.00,,,0.00,Wunderground v.1.15,2013-09-26 15:00:00,
2013-09-26 11:10:00,59.3,51.0,30.05,North,6,2.0,15.0,74,0.00,,,0.00,Wunderground v.1.15,2013-09-26 15:10:00,
2013-09-26 11:15:00,59.5,51.6,30.05,North,353,2.0,15.0,75,0.00,,,0.00,Wunderground v.1.15,2013-09-26 15:15:00,
2013-09-26 11:20:00,60.0,52.1,30.05,NW,314,1.0,15.0,75,0.00,,,0.00,Wunderground v.1.15,2013-09-26 15:20:00,
2013-09-26 11:30:00,60.3,52.0,30.05,NW,312,1.0,1.0,74,0.00,,,0.00,Wunderground v.1.15,2013-09-26 15:30:00,
2013-09-26 11:35:00,60.5,52.2,30.05,NW,311,0.0,2.0,74,0.00,,,0.00,Wunderground v.1.15,2013-09-26 15:35:00,
2013-09-26 11:45:00,60.5,51.8,30.05,NW,307,2.0,15.0,73,0.00,,,0.00,Wunderground v.1.15,2013-09-26 15:45:00,
2013-09-26 11:55:00,60.3,51.2,30.05,NW,325,1.0,15.0,72,0.00,,,0.00,Wunderground v.1.15,2013-09-26 15:55:00,
2013-09-26 12:05:00,60.7,52.4,30.04,North,349,0.0,2.0,74,0.00,,,0.00,Wunderground v.1.15,2013-09-26 16:05:00,
2013-09-26 12:15:00,60.5,52.2,30.05,NE,44,2.0,15.0,74,0.00,,,0.00,Wunderground v.1.15,2013-09-26 16:15:00,
2013-09-26 12:25:00,60.7,51.6,30.05,NNW,335,1.0,15.0,72,0.00,,,0.00,Wunderground v.1.15,2013-09-26 16:25:00,
2013-09-26 12:35:00,61.3,52.2,30.05,NNW,335,0.0,15.0,72,0.00,,,0.00,Wunderground v.1.15,2013-09-26 16:35:00,
2013-09-26 12:40:00,61.7,51.8,30.04,North,359,1.0,15.0,70,0.00,,,0.00,Wunderground v.1.15,2013-09-26 16:40:00,
2013-09-26 12:50:00,62.0,51.3,30.04,NW,321,1.0,15.0,68,0.00,,,0.00,Wunderground v.1.15,2013-09-26 16:50:00,
2013-09-26 13:00:00,61.4,51.1,30.04,NW,314,1.0,15.0,69,0.00,,,0.00,Wunderground v.1.15,2013-09-26 17:00:00,
2013-09-26 13:10:00,61.1,52.0,30.04,WNW,301,2.0,2.0,72,0.00,,,0.00,Wunderground v.1.15,2013-09-26 17:10:00,
2013-09-26 13:15:00,61.1,51.6,30.04,NNW,346,1.0,15.0,71,0.00,,,0.00,Wunderground v.1.15,2013-09-26 17:15:00,
2013-09-26 13:25:00,61.2,52.1,30.03,NW,323,2.0,15.0,72,0.00,,,0.00,Wunderground v.1.15,2013-09-26 17:25:00,
2013-09-26 13:35:00,61.0,50.8,30.03,NW,312,1.0,15.0,69,0.00,,,0.00,Wunderground v.1.15,2013-09-26 17:35:00,
2013-09-26 13:45:00,61.2,50.9,30.03,NW,316,1.0,15.0,69,0.00,,,0.00,Wunderground v.1.15,2013-09-26 17:45:00,
2013-09-26 13:55:00,62.1,51.0,30.03,NNE,19,1.0,15.0,67,0.00,,,0.00,Wunderground v.1.15,2013-09-26 17:55:00,
2013-09-26 14:05:00,61.8,51.1,30.03,North,353,1.0,15.0,68,0.00,,,0.00,Wunderground v.1.15,2013-09-26 18:05:00,
2013-09-26 14:15:00,61.8,50.7,30.03,North,6,2.0,15.0,67,0.00,,,0.00,Wunderground v.1.15,2013-09-26 18:15:00,
2013-09-26 14:25:00,61.5,49.6,30.03,NW,323,2.0,15.0,65,0.00,,,0.00,Wunderground v.1.15,2013-09-26 18:25:00,
2013-09-26 14:35:00,61.9,50.8,30.02,WNW,300,1.0,2.0,67,0.00,,,0.00,Wunderground v.1.15,2013-09-26 18:35:00,
2013-09-26 14:45:00,61.6,50.5,30.03,NNW,328,1.0,15.0,67,0.00,,,0.00,Wunderground v.1.15,2013-09-26 18:45:00,
2013-09-26 14:55:00,62.2,51.1,30.02,North,349,1.0,15.0,67,0.00,,,0.00,Wunderground v.1.15,2013-09-26 18:55:00,
2013-09-26 15:05:00,62.1,51.0,30.02,North,359,2.0,15.0,67,0.00,,,0.00,Wunderground v.1.15,2013-09-26 19:05:00,
2013-09-26 15:15:00,61.9,50.0,30.03,North,353,1.0,15.0,65,0.00,,,0.00,Wunderground v.1.15,2013-09-26 19:15:00,
2013-09-26 15:20:00,61.9,50.4,30.02,NNW,333,1.0,15.0,66,0.00,,,0.00,Wunderground v.1.15,2013-09-26 19:20:00,
2013-09-26 15:30:00,62.3,50.0,30.02,North,359,1.0,15.0,64,0.00,,,0.00,Wunderground v.1.15,2013-09-26 19:30:00,
2013-09-26 15:40:00,62.2,50.7,30.03,NW,314,1.0,15.0,66,0.00,,,0.00,Wunderground v.1.15,2013-09-26 19:40:00,
2013-09-26 15:50:00,62.4,50.1,30.02,North,355,1.0,15.0,64,0.00,,,0.00,Wunderground v.1.15,2013-09-26 19:50:00,
2013-09-26 16:00:00,62.5,50.6,30.02,NNE,23,1.0,15.0,65,0.00,,,0.00,Wunderground v.1.15,2013-09-26 20:00:00,
2013-09-26 16:10:00,62.7,50.3,30.02,WNW,301,0.0,15.0,64,0.00,,,0.00,Wunderground v.1.15,2013-09-26 20:10:00,
2013-09-26 16:20:00,62.6,50.7,30.02,NNE,13,1.0,15.0,65,0.00,,,0.00,Wunderground v.1.15,2013-09-26 20:20:00,
2013-09-26 16:30:00,62.8,50.9,30.02,WNW,291,1.0,1.0,65,0.00,,,0.00,Wunderground v.1.15,2013-09-26 20:30:00,
2013-09-26 16:40:00,62.7,50.3,30.02,NW,315,1.0,15.0,64,0.00,,,0.00,Wunderground v.1.15,2013-09-26 20:40:00,
2013-09-26 16:50:00,62.7,51.2,30.03,NNW,327,1.0,15.0,66,0.00,,,0.00,Wunderground v.1.15,2013-09-26 20:50:00,
2013-09-26 17:00:00,62.4,50.9,30.03,NW,317,1.0,1.0,66,0.00,,,0.00,Wunderground v.1.15,2013-09-26 21:00:00,
2013-09-26 17:10:00,62.4,50.5,30.03,North,355,0.0,15.0,65,0.00,,,0.00,Wunderground v.1.15,2013-09-26 21:10:00,
2013-09-26 17:20:00,61.8,51.9,30.03,WNW,297,0.0,15.0,70,0.00,,,0.00,Wunderground v.1.15,2013-09-26 21:20:00,
2013-09-26 17:30:00,61.2,51.3,30.03,NNW,329,0.0,15.0,70,0.00,,,0.00,Wunderground v.1.15,2013-09-26 21:30:00,
2013-09-26 17:40:00,60.8,51.3,30.04,NW,311,0.0,15.0,71,0.00,,,0.00,Wunderground v.1.15,2013-09-26 21:40:00,
2013-09-26 17:45:00,60.5,51.4,30.04,WNW,297,0.0,15.0,72,0.00,,,0.00,Wunderground v.1.15,2013-09-26 21:45:00,
2013-09-26 17:55:00,59.7,51.8,30.04,WNW,297,0.0,15.0,75,0.00,,,0.00,Wunderground v.1.15,2013-09-26 21:55:00,
2013-09-26 18:00:00,59.2,51.6,30.04,WNW,297,0.0,15.0,76,0.00,,,0.00,Wunderground v.1.15,2013-09-26 22:00:00,
2013-09-26 18:05:00,58.9,51.7,30.04,WNW,297,0.0,15.0,77,0.00,,,0.00,Wunderground v.1.15,2013-09-26 22:05:00,
2013-09-26 18:15:00,58.2,51.7,30.05,WNW,297,0.0,15.0,79,0.00,,,0.00,Wunderground v.1.15,2013-09-26 22:15:00,
2013-09-26 18:20:00,57.8,51.3,30.05,WNW,297,0.0,15.0,79,0.00,,,0.00,Wunderground v.1.15,2013-09-26 22:20:00,
2013-09-26 18:30:00,57.2,51.1,30.05,WNW,296,0.0,15.0,80,0.00,,,0.00,Wunderground v.1.15,2013-09-26 22:30:00,
2013-09-26 18:40:00,56.6,51.2,30.05,WNW,297,0.0,15.0,82,0.00,,,0.00,Wunderground v.1.15,2013-09-26 22:40:00,
2013-09-26 18:50:00,55.9,51.1,30.06,WNW,297,0.0,15.0,84,0.00,,,0.00,Wunderground v.1.15,2013-09-26 22:50:00,
2013-09-26 19:00:00,55.4,51.3,30.06,WNW,296,0.0,15.0,86,0.00,,,0.00,Wunderground v.1.15,2013-09-26 23:00:00,
2013-09-26 19:10:00,54.9,51.4,30.06,WNW,297,0.0,15.0,88,0.00,,,0.00,Wunderground v.1.15,2013-09-26 23:10:00,
2013-09-26 19:20:00,54.6,51.7,30.06,WNW,297,0.0,15.0,90,0.00,,,0.00,Wunderground v.1.15,2013-09-26 23:20:00,
2013-09-26 19:30:00,54.1,51.5,30.06,WNW,296,0.0,15.0,91,0.00,,,0.00,Wunderground v.1.15,2013-09-26 23:30:00,
2013-09-26 19:35:00,53.9,51.3,30.07,WNW,297,0.0,15.0,91,0.00,,,0.00,Wunderground v.1.15,2013-09-26 23:35:00,
2013-09-26 19:40:00,53.6,51.3,30.07,WNW,296,0.0,15.0,92,0.00,,,0.00,Wunderground v.1.15,2013-09-26 23:40:00,
2013-09-26 19:50:00,53.2,50.9,30.07,WNW,297,0.0,15.0,92,0.00,,,0.00,Wunderground v.1.15,2013-09-26 23:50:00,
2013-09-26 20:00:00,52.8,50.8,30.08,WNW,297,0.0,15.0,93,0.00,,,0.00,Wunderground v.1.15,2013-09-27 00:00:00,
2013-09-26 20:05:00,52.6,50.6,30.08,WNW,297,0.0,15.0,93,0.00,,,0.00,Wunderground v.1.15,2013-09-27 00:05:00,
2013-09-26 20:15:00,52.4,50.7,30.08,WNW,296,0.0,15.0,94,0.00,,,0.00,Wunderground v.1.15,2013-09-27 00:15:00,
2013-09-26 20:20:00,52.3,50.6,30.08,WNW,297,0.0,15.0,94,0.00,,,0.00,Wunderground v.1.15,2013-09-27 00:20:00,
2013-09-26 20:30:00,52.1,50.7,30.08,South,186,0.0,15.0,95,0.00,,,0.00,Wunderground v.1.15,2013-09-27 00:30:00,
2013-09-26 20:35:00,51.8,50.1,30.08,SSW,195,0.0,15.0,94,0.00,,,0.00,Wunderground v.1.15,2013-09-27 00:35:00,
2013-09-26 20:45:00,51.5,50.1,30.09,SSW,195,0.0,15.0,95,0.00,,,0.00,Wunderground v.1.15,2013-09-27 00:45:00,
2013-09-26 20:55:00,51.4,50.0,30.09,SSW,195,0.0,15.0,95,0.00,,,0.00,Wunderground v.1.15,2013-09-27 00:55:00,
2013-09-26 21:00:00,51.4,50.0,30.09,SSW,195,0.0,15.0,95,0.00,,,0.00,Wunderground v.1.15,2013-09-27 01:00:00,
2013-09-26 21:10:00,51.4,50.3,30.09,SSW,195,0.0,15.0,96,0.00,,,0.00,Wunderground v.1.15,2013-09-27 01:10:00,
2013-09-26 21:15:00,51.3,50.2,30.09,SSW,195,0.0,15.0,96,0.00,,,0.00,Wunderground v.1.15,2013-09-27 01:15:00,
2013-09-26 21:25:00,51.1,50.0,30.09,SSW,195,0.0,15.0,96,0.00,,,0.00,Wunderground v.1.15,2013-09-27 01:25:00,
2013-09-26 21:35:00,50.9,49.8,30.10,SSW,195,0.0,15.0,96,0.00,,,0.00,Wunderground v.1.15,2013-09-27 01:35:00,
2013-09-26 21:45:00,50.7,49.6,30.10,SSW,195,0.0,15.0,96,0.00,,,0.00,Wunderground v.1.15,2013-09-27 01:45:00,
2013-09-26 21:55:00,50.4,49.3,30.10,SSW,195,0.0,15.0,96,0.00,,,0.00,Wunderground v.1.15,2013-09-27 01:55:00,
2013-09-26 22:05:00,50.4,49.3,30.11,SSW,195,0.0,15.0,96,0.00,,,0.00,Wunderground v.1.15,2013-09-27 02:05:00,
2013-09-26 22:10:00,50.2,49.1,30.11,SSW,195,0.0,15.0,96,0.00,,,0.00,Wunderground v.1.15,2013-09-27 02:10:00,
2013-09-26 22:20:00,50.0,48.9,30.11,SSW,195,0.0,15.0,96,0.00,,,0.00,Wunderground v.1.15,2013-09-27 02:20:00,
2013-09-26 22:30:00,49.8,48.7,30.11,SSW,195,0.0,15.0,96,0.00,,,0.00,Wunderground v.1.15,2013-09-27 02:30:00,
2013-09-26 22:40:00,49.7,48.6,30.11,SSW,195,0.0,15.0,96,0.00,,,0.00,Wunderground v.1.15,2013-09-27 02:40:00,
2013-09-26 22:50:00,49.5,48.4,30.11,SSW,195,0.0,15.0,96,0.00,,,0.00,Wunderground v.1.15,2013-09-27 02:50:00,
2013-09-26 23:05:00,49.3,48.2,30.11,SSW,195,0.0,15.0,96,0.00,,,0.00,Wunderground v.1.15,2013-09-27 03:05:00,
2013-09-26 23:15:00,49.1,48.0,30.11,SSW,195,0.0,15.0,96,0.00,,,0.00,Wunderground v.1.15,2013-09-27 03:15:00,
2013-09-26 23:25:00,48.8,47.7,30.11,SSW,195,0.0,15.0,96,0.00,,,0.00,Wunderground v.1.15,2013-09-27 03:25:00,
2013-09-26 23:35:00,48.7,47.6,30.11,SSW,195,0.0,15.0,96,0.00,,,0.00,Wunderground v.1.15,2013-09-27 03:35:00,
2013-09-26 23:45:00,48.5,47.7,30.11,SSW,195,0.0,15.0,97,0.00,,,0.00,Wunderground v.1.15,2013-09-27 03:45:00,
2013-09-26 23:50:00,48.4,47.6,30.11,SSW,195,0.0,15.0,97,0.00,,,0.00,Wunderground v.1.15,2013-09-27 03:50:00,